{"data":{"norad_id":66688,"epoch":"2026-09-20T03:19:57.197280Z","epoch_age_seconds":152158,"freshness":"FRESH","line1":"1 66688U 25276Y   26263.13885645  .00003316  00000+0  15660-3 0  9998","line2":"2 66688  97.4137 335.0008 0005649  41.5199 318.6464 15.20104716 44837","mean_motion":15.20104716,"eccentricity":0.0005649,"inclination_deg":97.4137,"raan_deg":335.0008,"arg_perigee_deg":41.5199,"mean_anomaly_deg":318.6464,"bstar":0.0001566,"rev_number":4483,"period_min":94.730315934366,"perigee_km":501.63588372413,"apogee_km":509.41304444625,"semimajor_km":6883.6614640852,"source":"CELESTRAK","updated_at":"2026-09-21T09:00:16.125641Z"}}